STARLINK-11416, 62594

Orbit data source: Space-Track

STARLINK-11416, 62594 is a payload satellite owned by SpaceX/Seattle (US) in LEO that was launched on Mon, 13 Jan 2025 UTC via an FALCON 9 launch vehicle from the Air Force Eastern Test Range (AFETR). Payloads include a variety of satellites, spacecraft, and rockets equipped with specific instruments for various scientific and technological missions. These include communications satellites like Starlink; space stations such as the ISS; scientific satellites like the Hubble; Earth observation satellites from companies like Planet Labs, Umbra, and HawkEye 360; GPS; miniature CubeSats for education and research; and military/defense satellites.

Loading next visibility...
STARLINK-11416 details
Identifier
62594, 2025-008H
Orbit
LEO
Last TLE update11 hours ago
Origin
Flag of USSpaceX/Seattle (US)
ManufacturerSpaceX/Seattle
MissionOperational spacecraft
Bus & MotorSTARLINK V2M, Unknown motor
Mass730 kg wet, ~700 kg dry
Launch date (UTC)
2025-01-13 (3 weeks ago)
Launch vehicle
FALCON 9
Launch site
Air Force Eastern Test Range (AFETR)
Object type
Payload
Rocket body
Debris
Shape & HBRUnknown
Radar Cross SectionLarge (>1 m²)

Expand to show TLE details & history

TLE from 11 hours ago
0 STARLINK-11416
1 62594U 25008H   25035.83335648 -.00245150  27749-4 -71410-3 0  9994
2 62594  43.0034   4.5381 0001065 277.0903 282.3507 15.91720853  4487
Epoch: 2025-02-04T20:00Z
Definitive object data (Epoch: 2025-02-04T20:00:01.999Z)
Latitude-13.24535°
Longitude123.8311°
Altitude299.731 km
Speed7.729 km/s
True Right ascension13h 16m 17s
True Declination-13° 09' 49"
Sunlit
Object was in full shadow at TLE epoch
Visualization TLE readout
Latitude-35.29624°
Longitude155.53153°
Altitude307.601 km
Speed7.724 km/s
Apparent Right ascension17h 53m 12s
Apparent Declination-44° 56' 58"
Sunlit
Object is in daylight
Visualization observer readout
Local Sidereal Time08:44:20
Azimuth113.455° SE
Elevation-58.397°
Doppler factor1
Orbital elements
Apogee altitude300.177 km
Perigee altitude298.754 km
Semi-major axis6,677.603 km
Eccentricity0.0001065
Inclination43.0034°
RAAN4.5381°
Arg. of periapsis277.0903°
True anomaly282.33878°
Mean anomaly282.3507°
Eccentric anomaly282.34474°
Mean motion3.97752 °/min
BSTAR-0.0007141
Orbital period90.51 mins
Loading maneuver chart data...
Loading historical data...
Loading historical data...
Loading historical data...
Loading historical data...
Loading historical data...
Loading historical data...
Loading historical data...

STARLINK-11416 Visibility forecast

Observer location: undefined°, undefined

Span
Click to sort rows by Start time (UTC) header in descending order
Start Az.
Max El. time (UTC)
Max El. Az.
Max El.
End time (UTC)
End Az.
4 mins2025-02-06 01:32:07.450Z236.168° WSW2025-02-06 01:34:07.450Z137.739° SSE40.675°2025-02-06 01:36:07.450Z77.899° E
|